• In Romania
  • List of Countries
  • For 7 days
  • Water Temperature
  • Satellite Maps
  • Weather Map
  • Weather Widgets
  • user-avatar
    Login

    Hourly Weather Emona

    Today, 23 October, Monday

    Time Temperature Precipitation Wind Pressure Humidity
    00:00 +14°C° 0 mm 3 mps 760 mmHg 79%
    01:00 +14°C° 0 mm 3 mps 760 mmHg 82%
    02:00 +13°C° 0 mm 3 mps 759 mmHg 85%
    03:00 +13°C° 0 mm 3 mps 759 mmHg 86%
    04:00 +13°C° 0 mm 3 mps 758 mmHg 88%
    05:00 +13°C° 0 mm 4 mps 758 mmHg 89%
    06:00 +14°C° 0 mm 4 mps 757 mmHg 88%
    07:00 +14°C° 0 mm 4 mps 757 mmHg 86%
    08:00 +15°C° 0 mm 5 mps 757 mmHg 84%
    09:00 +16°C° 0 mm 5 mps 756 mmHg 77%
    10:00 +19°C° 0 mm 5 mps 756 mmHg 70%
    11:00 +20°C° 0 mm 5 mps 755 mmHg 63%
    12:00 +21°C° 0 mm 5 mps 755 mmHg 61%
    13:00 +22°C° 0 mm 5 mps 754 mmHg 58%
    14:00 +22°C° 0 mm 5 mps 754 mmHg 55%
    15:00 +22°C° 0 mm 5 mps 753 mmHg 58%
    16:00 +21°C° 0 mm 5 mps 753 mmHg 60%
    17:00 +20°C° 0 mm 4 mps 753 mmHg 62%
    18:00 +20°C° 0 mm 4 mps 752 mmHg 64%
    19:00 +19°C° 0 mm 4 mps 752 mmHg 67%
    20:00 +19°C° 0 mm 4 mps 752 mmHg 69%
    21:00 +18°C° 0 mm 4 mps 752 mmHg 69%
    22:00 +18°C° 0 mm 4 mps 751 mmHg 70%
    23:00 +18°C° 0 mm 3 mps 751 mmHg 70%

    Tomorrow, 24 October, Tuesday

    Time Temperature Precipitation Wind Pressure Humidity
    00:00 +18°C° 0 mm 3 mps 751 mmHg 71%
    01:00 +18°C° 0 mm 3 mps 751 mmHg 71%
    02:00 +18°C° 0 mm 3 mps 751 mmHg 72%
    03:00 +17°C° 0.4 mm 4 mps 751 mmHg 76%
    04:00 +17°C° 0.4 mm 4 mps 751 mmHg 80%
    05:00 +17°C° 0.4 mm 4 mps 751 mmHg 84%
    06:00 +16°C° 1.3 mm 5 mps 751 mmHg 83%
    07:00 +16°C° 1.3 mm 5 mps 751 mmHg 82%
    08:00 +17°C° 1.3 mm 6 mps 751 mmHg 81%
    09:00 +19°C° 0.2 mm 6 mps 752 mmHg 74%
    10:00 +20°C° 0.2 mm 6 mps 752 mmHg 67%
    11:00 +21°C° 0.2 mm 5 mps 752 mmHg 60%
    12:00 +21°C° 0.1 mm 5 mps 753 mmHg 59%
    13:00 +22°C° 0.1 mm 5 mps 753 mmHg 57%
    14:00 +22°C° 0.1 mm 5 mps 753 mmHg 55%
    15:00 +21°C° 0.4 mm 5 mps 753 mmHg 61%
    16:00 +20°C° 0.4 mm 5 mps 754 mmHg 66%
    17:00 +19°C° 0.4 mm 5 mps 754 mmHg 71%
    18:00 +19°C° 0.6 mm 6 mps 754 mmHg 76%
    19:00 +17°C° 0.6 mm 6 mps 755 mmHg 81%
    20:00 +17°C° 0.6 mm 6 mps 756 mmHg 85%
    21:00 +17°C° 0.5 mm 7 mps 756 mmHg 85%
    22:00 +17°C° 0.5 mm 7 mps 756 mmHg 86%
    23:00 +17°C° 0.5 mm 8 mps 757 mmHg 86%

    Day after tomorrow, 25 October, Wednesday

    Time Temperature Precipitation Wind Pressure Humidity
    00:00 +16°C° 0.4 mm 8 mps 757 mmHg 86%
    01:00 +16°C° 0.4 mm 9 mps 758 mmHg 85%
    02:00 +16°C° 0.4 mm 9 mps 758 mmHg 85%
    03:00 +14°C° 0.2 mm 10 mps 758 mmHg 84%
    04:00 +13°C° 0.2 mm 10 mps 759 mmHg 83%
    05:00 +13°C° 0.2 mm 10 mps 759 mmHg 82%
    06:00 +12°C° 0.1 mm 10 mps 760 mmHg 81%
    07:00 +12°C° 0.1 mm 10 mps 761 mmHg 80%
    08:00 +11°C° 0.1 mm 10 mps 761 mmHg 79%
    09:00 +11°C° 0.2 mm 10 mps 762 mmHg 77%
    10:00 +11°C° 0.2 mm 9 mps 762 mmHg 75%
    11:00 +11°C° 0.2 mm 9 mps 763 mmHg 73%
    12:00 +11°C° 0.5 mm 9 mps 764 mmHg 73%
    13:00 +11°C° 0.5 mm 9 mps 764 mmHg 72%
    14:00 +11°C° 0.5 mm 9 mps 764 mmHg 72%
    15:00 +11°C° 0.8 mm 9 mps 765 mmHg 71%
    16:00 +11°C° 0.8 mm 8 mps 765 mmHg 71%
    17:00 +11°C° 0.8 mm 8 mps 766 mmHg 70%
    18:00 +11°C° 0.8 mm 8 mps 766 mmHg 71%
    19:00 +10°C° 0.8 mm 7 mps 767 mmHg 72%
    20:00 +10°C° 0.8 mm 7 mps 768 mmHg 73%
    21:00 +10°C° 0.2 mm 7 mps 768 mmHg 73%
    22:00 +9°C° 0.2 mm 7 mps 768 mmHg 73%
    23:00 +9°C° 0.2 mm 7 mps 768 mmHg 72%

    26 October, Thursday

    Time Temperature Precipitation Wind Pressure Humidity
    00:00 +9°C° 0 mm 6 mps 769 mmHg 73%
    01:00 +8°C° 0 mm 6 mps 769 mmHg 73%
    02:00 +8°C° 0 mm 6 mps 769 mmHg 74%
    03:00 +7°C° 0 mm 5 mps 769 mmHg 75%
    04:00 +7°C° 0 mm 5 mps 769 mmHg 76%
    05:00 +7°C° 0 mm 4 mps 769 mmHg 77%
    06:00 +7°C° 0 mm 4 mps 770 mmHg 75%
    07:00 +7°C° 0 mm 4 mps 770 mmHg 73%
    08:00 +8°C° 0 mm 4 mps 770 mmHg 71%
    09:00 +10°C° 0 mm 4 mps 770 mmHg 67%
    10:00 +12°C° 0 mm 4 mps 770 mmHg 62%
    11:00 +14°C° 0 mm 4 mps 770 mmHg 57%
    12:00 +14°C° 0 mm 3 mps 770 mmHg 55%
    13:00 +16°C° 0 mm 3 mps 770 mmHg 53%
    14:00 +17°C° 0 mm 3 mps 769 mmHg 52%
    15:00 +16°C° 0 mm 2 mps 769 mmHg 55%
    16:00 +15°C° 0 mm 2 mps 769 mmHg 59%
    17:00 +15°C° 0 mm 1 mps 769 mmHg 63%
    18:00 +14°C° 0 mm 1 mps 769 mmHg 65%
    19:00 +13°C° 0 mm 1 mps 769 mmHg 68%
    20:00 +12°C° 0 mm 1 mps 769 mmHg 71%
    21:00 +12°C° 0 mm 1 mps 769 mmHg 72%
    22:00 +12°C° 0 mm 2 mps 768 mmHg 73%
    23:00 +10°C° 0 mm 2 mps 768 mmHg 74%

    27 October, Friday

    Time Temperature Precipitation Wind Pressure Humidity
    00:00 +10°C° 0 mm 2 mps 768 mmHg 75%
    01:00 +10°C° 0 mm 2 mps 767 mmHg 76%
    02:00 +10°C° 0 mm 2 mps 767 mmHg 78%
    03:00 +10°C° 0 mm 2 mps 766 mmHg 79%
    04:00 +10°C° 0 mm 3 mps 766 mmHg 80%
    05:00 +9°C° 0 mm 3 mps 765 mmHg 81%
    06:00 +10°C° 0 mm 3 mps 765 mmHg 79%
    07:00 +11°C° 0 mm 3 mps 765 mmHg 77%
    08:00 +11°C° 0 mm 3 mps 765 mmHg 74%
    09:00 +13°C° 0 mm 3 mps 764 mmHg 66%
    10:00 +16°C° 0 mm 3 mps 764 mmHg 58%
    11:00 +19°C° 0 mm 3 mps 764 mmHg 50%
    12:00 +19°C° 0 mm 3 mps 763 mmHg 48%
    13:00 +20°C° 0 mm 3 mps 762 mmHg 45%
    14:00 +21°C° 0 mm 3 mps 761 mmHg 43%
    15:00 +20°C° 0 mm 3 mps 760 mmHg 48%
    16:00 +19°C° 0 mm 3 mps 760 mmHg 52%
    17:00 +17°C° 0 mm 3 mps 759 mmHg 57%
    18:00 +17°C° 0 mm 3 mps 759 mmHg 60%
    19:00 +16°C° 0 mm 3 mps 759 mmHg 62%
    20:00 +14°C° 0 mm 4 mps 758 mmHg 65%
    21:00 +14°C° 0 mm 3 mps 758 mmHg 67%
    22:00 +14°C° 0 mm 3 mps 758 mmHg 69%
    23:00 +13°C° 0 mm 3 mps 757 mmHg 72%

    28 October, Saturday

    Time Temperature Precipitation Wind Pressure Humidity
    00:00 +13°C° 0 mm 3 mps 757 mmHg 73%
    01:00 +13°C° 0 mm 3 mps 756 mmHg 75%
    02:00 +13°C° 0 mm 3 mps 756 mmHg 77%
    03:00 +13°C° 0 mm 3 mps 755 mmHg 78%
    04:00 +12°C° 0 mm 3 mps 755 mmHg 80%
    05:00 +12°C° 0 mm 3 mps 755 mmHg 81%
    06:00 +13°C° 0 mm 4 mps 755 mmHg 79%
    07:00 +13°C° 0 mm 4 mps 755 mmHg 78%
    08:00 +14°C° 0 mm 4 mps 755 mmHg 76%
    09:00 +15°C° 0 mm 4 mps 755 mmHg 70%
    10:00 +18°C° 0 mm 4 mps 755 mmHg 64%
    11:00 +19°C° 0 mm 4 mps 755 mmHg 58%
    12:00 +19°C° 0 mm 3 mps 755 mmHg 57%
    13:00 +19°C° 0 mm 3 mps 755 mmHg 56%
    14:00 +20°C° 0 mm 3 mps 754 mmHg 55%
    15:00 +19°C° 0 mm 3 mps 754 mmHg 60%
    16:00 +18°C° 0 mm 3 mps 754 mmHg 65%
    17:00 +17°C° 0 mm 3 mps 754 mmHg 70%
    18:00 +16°C° 0.8 mm 3 mps 754 mmHg 74%
    19:00 +14°C° 0.8 mm 3 mps 754 mmHg 77%
    20:00 +13°C° 0.8 mm 3 mps 754 mmHg 81%
    21:00 +13°C° 1.9 mm 3 mps 754 mmHg 82%
    22:00 +13°C° 1.9 mm 3 mps 754 mmHg 83%
    23:00 +12°C° 1.9 mm 4 mps 754 mmHg 84%

    29 October, Sunday

    Time Temperature Precipitation Wind Pressure Humidity
    00:00 +12°C° 1.4 mm 4 mps 753 mmHg 84%
    01:00 +12°C° 1.4 mm 4 mps 753 mmHg 85%
    02:00 +12°C° 1.4 mm 4 mps 753 mmHg 85%
    03:00 +11°C° 0.6 mm 4 mps 753 mmHg 86%
    04:00 +11°C° 0.6 mm 4 mps 752 mmHg 86%
    05:00 +11°C° 0.6 mm 4 mps 752 mmHg 87%
    06:00 +11°C° 1 mm 4 mps 752 mmHg 87%
    07:00 +9°C° 1 mm 5 mps 752 mmHg 88%
    08:00 +9°C° 1 mm 5 mps 752 mmHg 89%
    09:00 +9°C° 1.6 mm 5 mps 752 mmHg 88%
    10:00 +9°C° 1.6 mm 6 mps 752 mmHg 88%
    11:00 +9°C° 1.6 mm 6 mps 752 mmHg 87%
    12:00 +9°C° 0.6 mm 7 mps 752 mmHg 86%
    13:00 +10°C° 0.6 mm 7 mps 751 mmHg 85%
    14:00 +10°C° 0.6 mm 7 mps 751 mmHg 84%
    15:00 +10°C° 0.5 mm 8 mps 751 mmHg 85%
    16:00 +10°C° 0.5 mm 8 mps 752 mmHg 86%
    17:00 +10°C° 0.5 mm 8 mps 752 mmHg 87%
    18:00 +10°C° 0.4 mm 8 mps 752 mmHg 86%
    19:00 +10°C° 0.4 mm 8 mps 753 mmHg 86%
    20:00 +10°C° 0.4 mm 9 mps 753 mmHg 85%
    21:00 +10°C° 0.3 mm 9 mps 753 mmHg 84%
    22:00 +10°C° 0.4 mm 9 mps 754 mmHg 83%
    23:00 +8°C° 0.4 mm 9 mps 754 mmHg 82%
    Show more